GW4549 Weather Reports


time (UTC)temp
C
wind
direction
speed
KPH
gust
KPH
rain 1hr
cm
rain 24hr
cm
rain mn
cm
humidity
%
barometer
mb
20260505152006 24 182 8.0 17.7 0.00 0.00 0.00 47 1016.3
20260505151509 24 205 8.0 17.7 0.00 0.00 0.00 47 1016.4
20260505151007 23 200 6.4 17.7 0.00 0.00 0.00 48 1016.4
20260505150506 23 225 8.0 17.7 0.00 0.00 0.00 47 1016.3
20260505140508 21 213 8.0 22.5 0.00 0.00 0.00 53 1016.7
20260505125007 18 233 9.7 19.3 0.00 0.00 0.00 61 1016.9
20260505124528 18 197 6.4 17.7 0.00 0.00 0.00 62 1016.9
20260505124008 18 231 3.2 12.9 0.00 0.00 0.00 63 1016.9
20260505123507 18 211 3.2 19.3 0.00 0.00 0.00 64 1016.8
20260505123006 17 241 9.7 19.3 0.00 0.00 0.00 64 1016.8
20260505122504 17 211 1.6 24.1 0.00 0.00 0.00 64 1016.8
20260505122010 17 217 9.7 24.1 0.00 0.00 0.00 64 1016.7
20260505121510 17 175 6.4 17.7 0.00 0.00 0.00 66 1016.7
20260505121007 16 312 4.8 17.7 0.00 0.00 0.00 67 1016.7
20260505120507 16 188 4.8 16.1 0.00 0.00 0.00 67 1016.6
20260505120021 16 200 6.4 14.5 0.00 0.00 0.00 68 1016.6
20260505115506 16 234 4.8 16.1 0.00 0.00 0.00 69 1016.6
20260505115004 16 216 4.8 12.9 0.00 0.00 0.00 68 1016.5
20260505114508 16 220 6.4 14.5 0.00 0.00 0.00 69 1016.6
20260505114004 16 200 4.8 16.1 0.00 0.00 0.00 70 1016.6
20260505113503 15 226 4.8 16.1 0.00 0.00 0.00 70 1016.5
20260505113018 15 218 8.0 14.5 0.00 0.00 0.00 71 1016.5
20260505112507 15 267 3.2 11.3 0.00 0.00 0.00 71 1016.5
20260505112010 15 188 4.8 16.1 0.00 0.00 0.00 71 1016.6
20260505111520 15 186 6.4 16.1 0.00 0.00 0.00 71 1016.5
20260505111006 15 218 6.4 14.5 0.00 0.00 0.00 71 1016.5
20260505110505 15 238 6.4 14.5 0.00 0.00 0.00 71 1016.5
20260505102006 15 171 6.4 17.7 0.00 0.00 0.00 70 1016.0
20260505101517 15 239 9.7 17.7 0.00 0.00 0.00 70 1015.8
20260505101009 15 146 4.8 14.5 0.00 0.00 0.00 70 1015.8
20260505100508 15 191 4.8 14.5 0.00 0.00 0.00 70 1015.7
20260505100024 15 194 4.8 14.5 0.00 0.00 0.00 70 1015.5
20260505095507 15 190 4.8 14.5 0.00 0.00 0.00 70 1015.6
20260505095005 15 236 4.8 14.5 0.00 0.00 0.00 69 1015.5
20260505094511 15 202 4.8 16.1 0.00 0.00 0.00 69 1015.4
20260505094007 15 227 4.8 14.5 0.00 0.00 0.00 69 1015.4
20260505093507 15 196 4.8 14.5 0.00 0.00 0.00 69 1015.3
20260505093019 15 240 6.4 14.5 0.00 0.00 0.00 68 1015.4
20260505092508 15 224 4.8 14.5 0.00 0.00 0.00 68 1015.3
20260505092010 15 254 6.4 14.5 0.00 0.00 0.00 68 1015.3
20260505091522 15 256 3.2 12.9 0.00 0.00 0.00 68 1015.3
20260505091006 15 218 3.2 12.9 0.00 0.00 0.00 68 1015.3
20260505090503 15 214 4.8 14.5 0.00 0.00 0.00 67 1015.3
20260505090012 15 167 6.4 14.5 0.00 0.00 0.00 67 1015.2
20260505085509 15 188 4.8 11.3 0.00 0.00 0.00 67 1015.2
20260505085007 15 191 3.2 12.9 0.00 0.00 0.00 67 1015.3
20260505084541 16 186 3.2 12.9 0.00 0.00 0.00 67 1015.3
20260505084011 16 225 6.4 12.9 0.00 0.00 0.00 66 1015.2
20260505083509 16 246 4.8 14.5 0.00 0.00 0.00 66 1015.2
20260505083026 16 169 4.8 14.5 0.00 0.00 0.00 66 1015.2
20260505082507 16 221 1.6 11.3 0.00 0.00 0.00 66 1015.1
20260505082008 16 221 4.8 12.9 0.00 0.00 0.00 66 1015.1
20260505081520 16 288 3.2 12.9 0.00 0.00 0.00 65 1015.2
20260505081007 16 207 1.6 24.1 0.00 0.00 0.00 65 1015.1
20260505080510 16 207 9.7 19.3 0.00 0.00 0.00 65 1015.1
20260505080026 16 179 6.4 14.5 0.00 0.00 0.00 65 1015.1
20260505075507 16 242 3.2 11.3 0.00 0.00 0.00 65 1015.1
20260505075008 16 209 4.8 11.3 0.00 0.00 0.00 65 1015.1
20260505074512 16 236 4.8 14.5 0.00 0.00 0.00 65 1015.1
20260505074006 16 221 6.4 14.5 0.00 0.00 0.00 64 1015.1
20260505073507 16 179 6.4 16.1 0.00 0.00 0.00 64 1015.1
20260505073022 16 250 4.8 16.1 0.00 0.00 0.00 64 1015.0
20260505072509 16 186 3.2 16.1 0.00 0.00 0.00 64 1015.0
20260505072012 16 240 3.2 14.5 0.00 0.00 0.00 64 1014.9
20260505071525 16 243 6.4 14.5 0.00 0.00 0.00 63 1015.0
20260505071011 16 167 4.8 14.5 0.00 0.00 0.00 63 1014.9
20260505070509 16 234 4.8 14.5 0.00 0.00 0.00 63 1014.9
20260505070016 16 238 1.6 17.7 0.00 0.00 0.00 62 1014.8
20260505065509 16 214 4.8 19.3 0.00 0.00 0.00 62 1014.9
20260505065006 17 202 8.0 19.3 0.00 0.00 0.00 62 1014.9
20260505064526 16 205 8.0 16.1 0.00 0.00 0.00 62 1014.9
20260505064015 16 244 4.8 14.5 0.00 0.00 0.00 62 1014.9
20260505063510 17 211 6.4 14.5 0.00 0.00 0.00 61 1014.9
20260505063033 17 205 4.8 17.7 0.00 0.00 0.00 61 1014.9
20260505062508 17 188 9.7 17.7 0.00 0.00 0.00 61 1014.9
20260505062007 17 224 4.8 19.3 0.00 0.00 0.00 61 1014.9
20260505061522 17 243 9.7 19.3 0.00 0.00 0.00 60 1014.9
20260505061007 17 238 6.4 19.3 0.00 0.00 0.00 61 1015.0
20260505060510 17 227 9.7 19.3 0.00 0.00 0.00 61 1015.0
20260505060034 17 267 6.4 17.7 0.00 0.00 0.00 61 1015.0
20260505055513 17 170 6.4 17.7 0.00 0.00 0.00 61 1015.1
20260505055010 17 280 6.4 22.5 0.00 0.00 0.00 61 1015.0
20260505054515 17 229 4.8 22.5 0.00 0.00 0.00 61 1015.1
20260505054011 17 225 8.0 17.7 0.00 0.00 0.00 61 1015.1
20260505053509 17 264 6.4 22.5 0.00 0.00 0.00 61 1015.2
20260505053022 17 215 6.4 22.5 0.00 0.00 0.00 61 1015.3
20260505052510 17 190 8.0 19.3 0.00 0.00 0.00 61 1015.3
20260505052009 17 184 4.8 17.7 0.00 0.00 0.00 61 1015.1
20260505051528 17 125 6.4 17.7 0.00 0.00 0.00 61 1015.2
20260505051011 17 218 8.0 19.3 0.00 0.00 0.00 61 1015.2
20260505050508 17 229 6.4 19.3 0.00 0.00 0.00 60 1015.3
20260505041523 18 114 1.6 19.3 0.00 0.00 0.00 60 1015.2
20260505041007 18 214 9.7 19.3 0.00 0.00 0.00 60 1015.1
20260505040513 18 169 8.0 19.3 0.00 0.00 0.00 60 1015.2
20260505040029 18 267 6.4 20.9 0.00 0.00 0.00 60 1015.1
20260505035511 18 246 8.0 20.9 0.00 0.00 0.00 60 1015.0
20260505035010 18 194 9.7 19.3 0.00 0.00 0.00 59 1015.1
20260505034531 18 190 9.7 24.1 0.00 0.00 0.00 59 1015.1
20260505034008 18 221 8.0 24.1 0.00 0.00 0.00 60 1015.0
20260505033511 18 220 8.0 20.9 0.00 0.00 0.00 59 1015.0
20260505033026 18 256 11.3 22.5 0.00 0.00 0.00 59 1015.0
20260505032510 18 215 9.7 22.5 0.00 0.00 0.00 59 1015.0
20260505032011 18 236 8.0 24.1 0.00 0.00 0.00 60 1015.0
20260505031529 18 230 11.3 24.1 0.00 0.00 0.00 59 1014.9
20260505031009 18 241 6.4 22.5 0.00 0.00 0.00 59 1015.0
20260505030507 18 107 8.0 29.0 0.00 0.00 0.00 59 1014.9
20260505030022 18 188 9.7 29.0 0.00 0.00 0.00 59 1015.0
20260505025509 18 203 9.7 29.0 0.00 0.00 0.00 60 1015.0
20260505025009 18 213 6.4 25.7 0.00 0.00 0.00 60 1015.0
20260505024526 18 164 6.4 25.7 0.00 0.00 0.00 60 1015.1
20260505024007 18 172 11.3 22.5 0.00 0.00 0.00 61 1015.0
20260505023511 18 178 4.8 19.3 0.00 0.00 0.00 60 1015.1
20260505023026 18 175 9.7 19.3 0.00 0.00 0.00 61 1015.0
20260505022509 18 144 6.4 24.1 0.00 0.00 0.00 60 1015.0
20260505022010 18 176 11.3 22.5 0.00 0.00 0.00 60 1015.0
20260505021523 18 162 6.4 20.9 0.00 0.00 0.00 60 1014.9
20260505021009 19 198 4.8 20.9 0.00 0.00 0.00 60 1014.8
20260505020512 19 214 6.4 19.3 0.00 0.00 0.00 60 1014.9
20260505020028 19 115 8.0 24.1 0.00 0.00 0.00 60 1015.0
20260505015511 19 123 8.0 24.1 0.00 0.00 0.00 60 1014.9
20260505015010 19 220 6.4 19.3 0.00 0.00 0.00 60 1014.9
20260505014528 19 198 6.4 16.1 0.00 0.00 0.00 60 1014.9
20260505014009 19 182 4.8 27.4 0.00 0.00 0.00 59 1014.7
20260505013508 19 178 8.0 27.4 0.00 0.00 0.00 59 1014.6
20260505013027 19 180 3.2 19.3 0.00 0.00 0.00 59 1014.7
20260505012508 19 216 1.6 17.7 0.00 0.00 0.00 59 1014.6
20260505012009 20 118 4.8 19.3 0.00 0.00 0.00 59 1014.6
20260505011546 20 159 4.8 19.3 0.00 0.00 0.00 58 1014.5
20260505011010 20 238 9.7 19.3 0.00 0.00 0.00 58 1014.4
20260505010514 20 202 4.8 16.1 0.00 0.00 0.00 58 1014.3
20260505010026 20 166 8.0 24.1 0.00 0.00 0.00 58 1014.3
20260505005511 20 244 9.7 24.1 0.00 0.00 0.00 57 1014.2
20260505005011 20 146 6.4 17.7 0.00 0.00 0.00 57 1014.1
20260505004526 20 186 8.0 19.3 0.00 0.00 0.00 57 1014.0
20260505004007 20 144 4.8 22.5 0.00 0.00 0.00 56 1013.9
20260505003504 20 290 9.7 22.5 0.00 0.00 0.00 56 1013.9
20260505003020 20 169 6.4 19.3 0.00 0.00 0.00 56 1013.9
20260505002507 20 261 6.4 25.7 0.00 0.00 0.00 55 1013.9
20260505002018 21 158 6.4 27.4 0.00 0.00 0.00 55 1013.7
20260505001526 21 200 9.7 25.7 0.00 0.00 0.00 54 1013.7
20260505001012 21 151 6.4 19.3 0.00 0.00 0.00 54 1013.6
20260505000510 21 167 6.4 24.1 0.00 0.00 0.00 53 1013.6
20260505000015 21 186 9.7 24.1 0.00 0.00 0.00 52 1013.5
20260504235505 21 132 9.7 22.5 0.00 0.00 0.00 52 1013.4
20260504235008 21 123 8.0 16.1 0.00 0.00 0.00 51 1013.4
20260504234528 21 227 6.4 22.5 0.00 0.00 0.00 50 1013.3
20260504234009 22 319 9.7 27.4 0.00 0.00 0.00 49 1013.3
20260504233509 22 202 9.7 27.4 0.00 0.00 0.00 48 1013.1
20260504233028 22 227 4.8 27.4 0.00 0.00 0.00 45 1013.1
20260504232507 23 184 8.0 27.4 0.00 0.00 0.00 40 1012.9
20260504232006 23 208 8.0 20.9 0.00 0.00 0.00 36 1012.9
20260504231516 23 221 4.8 20.9 0.00 0.00 0.00 35 1012.8
20260504231010 23 213 6.4 20.9 0.00 0.00 0.00 35 1012.7
20260504230507 23 223 9.7 17.7 0.00 0.00 0.00 35 1012.7
20260504230024 23 199 6.4 19.3 0.00 0.00 0.00 35 1012.7
20260504225508 23 236 9.7 20.9 0.00 0.00 0.00 35 1012.8
20260504225009 24 220 6.4 20.9 0.00 0.00 0.00 34 1012.7
20260504224513 24 217 6.4 19.3 0.00 0.00 0.00 35 1012.8
20260504224005 24 223 11.3 19.3 0.00 0.00 0.00 34 1012.7
20260504223507 24 193 4.8 20.9 0.00 0.00 0.00 34 1012.6
20260504223025 24 231 8.0 30.6 0.00 0.00 0.00 34 1012.8
20260504222510 24 134 11.3 30.6 0.00 0.00 0.00 33 1012.7
20260504222009 25 215 8.0 19.3 0.00 0.00 0.00 34 1012.8
20260504221526 25 290 6.4 20.9 0.00 0.00 0.00 34 1012.8
20260504221012 25 180 9.7 20.9 0.00 0.00 0.00 32 1012.8
20260504220509 25 198 9.7 29.0 0.00 0.00 0.00 33 1012.6
20260504220014 25 165 4.8 30.6 0.00 0.00 0.00 33 1012.7
20260504215507 25 261 11.3 30.6 0.00 0.00 0.00 32 1012.7
20260504215009 25 219 6.4 24.1 0.00 0.00 0.00 32 1012.7
20260504214526 25 181 8.0 25.7 0.00 0.00 0.00 32 1012.7
20260504214012 25 194 11.3 22.5 0.00 0.00 0.00 32 1012.8
20260504213511 25 227 9.7 24.1 0.00 0.00 0.00 32 1012.9
20260504213033 25 233 8.0 24.1 0.00 0.00 0.00 31 1012.9
20260504212510 26 214 8.0 22.5 0.00 0.00 0.00 32 1013.0
20260504212007 26 169 11.3 27.4 0.00 0.00 0.00 31 1012.8
20260504211527 26 207 9.7 27.4 0.00 0.00 0.00 31 1012.9
20260504211007 26 184 8.0 19.3 0.00 0.00 0.00 31 1012.9
20260504210504 26 124 4.8 17.7 0.00 0.00 0.00 31 1012.9
20260504210008 26 267 8.0 22.5 0.00 0.00 0.00 32 1013.0
20260504205504 26 211 9.7 22.5 0.00 0.00 0.00 31 1013.0
20260504205006 26 180 9.7 22.5 0.00 0.00 0.00 32 1013.0
20260504204514 26 227 9.7 20.9 0.00 0.00 0.00 32 1013.0
20260504204006 26 116 4.8 24.1 0.00 0.00 0.00 32 1013.1
20260504203507 26 231 11.3 22.5 0.00 0.00 0.00 32 1013.0
20260504203003 26 193 6.4 22.5 0.00 0.00 0.00 32 1013.0
20260504202503 25 227 9.7 22.5 0.00 0.00 0.00 31 1013.0
20260504202003 25 250 8.0 20.9 0.00 0.00 0.00 32 1013.1
20260504201510 26 212 9.7 20.9 0.00 0.00 0.00 30 1013.1
20260504201003 26 215 9.7 32.2 0.00 0.00 0.00 31 1013.1
20260504200506 26 199 8.0 32.2 0.00 0.00 0.00 30 1013.2
20260504200020 26 225 11.3 27.4 0.00 0.00 0.00 29 1013.2
20260504195507 26 177 4.8 27.4 0.00 0.00 0.00 31 1013.3
20260504195008 26 223 8.0 19.3 0.00 0.00 0.00 32 1013.3
20260504194504 26 149 9.7 19.3 0.00 0.00 0.00 31 1013.4
20260504194004 26 248 9.7 19.3 0.00 0.00 0.00 31 1013.5
20260504193506 26 224 8.0 27.4 0.00 0.00 0.00 30 1013.6
20260504193012 26 308 11.3 25.7 0.00 0.00 0.00 30 1013.6
20260504192508 26 219 9.7 22.5 0.00 0.00 0.00 29 1013.7
20260504192009 26 243 14.5 27.4 0.00 0.00 0.00 29 1013.7
20260504191521 26 126 9.7 25.7 0.00 0.00 0.00 30 1013.7
20260504191009 26 215 3.2 25.7 0.00 0.00 0.00 31 1013.8
20260504190503 26 135 11.3 22.5 0.00 0.00 0.00 32 1013.9
20260504190006 26 213 6.4 19.3 0.00 0.00 0.00 33 1013.8
20260504185505 26 269 9.7 19.3 0.00 0.00 0.00 30 1013.9
20260504185004 26 236 4.8 14.5 0.00 0.00 0.00 33 1013.9
20260504184523 26 278 8.0 20.9 0.00 0.00 0.00 33 1014.1
20260504184011 26 239 4.8 20.9 0.00 0.00 0.00 32 1014.0
20260504183508 26 201 8.0 19.3 0.00 0.00 0.00 32 1014.3
20260504183026 26 292 4.8 16.1 0.00 0.00 0.00 34 1014.4
20260504182503 26 268 8.0 20.9 0.00 0.00 0.00 33 1014.6
20260504182004 25 277 11.3 20.9 0.00 0.00 0.00 35 1014.5
20260504181509 25 287 3.2 17.7 0.00 0.00 0.00 33 1014.3
20260504181008 26 258 6.4 25.7 0.00 0.00 0.00 32 1014.6
20260504180507 25 222 12.9 25.7 0.00 0.00 0.00 34 1014.7
20260504180023 25 195 8.0 22.5 0.00 0.00 0.00 33 1014.7
20260504175513 26 206 4.8 20.9 0.00 0.00 0.00 35 1014.7
20260504175012 25 284 6.4 19.3 0.00 0.00 0.00 34 1014.7
20260504174526 25 324 4.8 19.3 0.00 0.00 0.00 34 1014.7
20260504174010 25 159 4.8 19.3 0.00 0.00 0.00 35 1014.8
20260504173508 25 287 8.0 20.9 0.00 0.00 0.00 34 1014.8
20260504173020 25 261 8.0 19.3 0.00 0.00 0.00 33 1014.9
20260504172505 25 227 9.7 27.4 0.00 0.00 0.00 33 1014.9
20260504172010 24 300 12.9 27.4 0.00 0.00 0.00 34 1015.0
20260504171539 24 294 12.9 27.4 0.00 0.00 0.00 34 1015.0
20260504171010 25 266 8.0 19.3 0.00 0.00 0.00 35 1015.0
20260504170515 25 275 4.8 20.9 0.00 0.00 0.00 35 1015.0